FALCON 9 R/B, 62853

Orbit data source: Space-Track

FALCON 9 R/B, 62853 is space debris in HEO originally from a launch on Thu, 30 Jan 2025 UTC launched from the Air Force Eastern Test Range (AFETR). Debris objects in space refer to the collection of defunct objects orbiting the Earth. Examples of debris include non-operational satellites, rocket bodies, and fragments generated from explosions, collisions, or faulty payload assembly.

Loading next visibility...
Identifier
62853, 2025-021B
Orbit
HEO
Last TLE update
2 days ago
Origin
Manufacturer
SpaceX
Mission
Spacecraft
Bus & Motor
F9ST2, Unknown motor
Mass
~4,000 kg wet, ~4,000 kg dry
Launch date (UTC)
2025-01-30 (5 months ago)
Launch vehicle
Unknown
Launch site
Air Force Eastern Test Range (AFETR)
Object type
Payload
Rocket body
Debris
Shape & HBR
Cyl, 15.53 m
Radar Cross Section
39.980 m², Large (>1 m²)

Expand to show TLE details & history

TLE from 2 days ago
0 FALCON 9 R/B
1 62853U 25021B   25181.62515505 -.00000334  00000-0  36378-3 0  9991
2 62853  25.7868 319.9303 8310228 218.1749  35.7867  1.10705836  1666
Epoch: 2025-06-30T15:00Z
TLE epoch observation values (Epoch: 2025-06-30T15:00:13.396Z)
Latitude
0.00051°
Longitude
175.98878°
Altitude
29,142.004 km
Speed
3.513 km/s
True Right ascension
21h 19m 54s
True Declination
0° 00' 02"
Sunlit
Object was in daylight at epoch
Visualization orbit readout
Latitude
23.08854°
Longitude
-122.519°
Altitude
42,441.471 km
Speed
2.496 km/s
Apparent Right ascension
01h 41m 14s
Apparent Declination
17° 11' 24"
Sunlit
Object is in daylight
Visualization observer readout
Local Sidereal Time
16:12:54
Azimuth
39.572° NE
Elevation
-22.857°
Doppler factor
1
Orbital elements
Apogee altitude
65,904.38 km
Perigee altitude
292.505 km
Semi-major axis
39,476.579 km
Eccentricity
0.83102
Inclination
25.7868°
RAAN
319.9303°
Arg. of periapsis
218.1749°
True anomaly
Unknown
Mean anomaly
35.7867°
Eccentric anomaly
Unknown
Mean motion
0.27672 °/min
Orbital period
1,300.97 mins
BSTAR
0.00036378
Loading maneuver chart data...
Loading SW <> Apogee altitude chart data...
Loading historical data...
Loading historical data...
Loading historical data...
Loading historical data...
Loading historical data...
Loading historical data...
Loading historical data...
Other satellites on launch #21 in the year 2025 (2025-01-30 UTC)

FALCON 9 R/B Visibility forecast

Observer location: undefined°, undefined°

Span
Click to sort rows by Start time (UTC) header in descending order
Start Az.
Max El. time (UTC)
Max El. Az.
Max El.
End time (UTC)
End Az.
487 mins2025-07-02 08:54:28.936Z203.431° SW2025-07-02 11:33:28.936Z211.705° SW35.303°2025-07-02 17:01:28.936Z275.224° WNW
|